Miscellaneous Local Product
Issued by NWS North Platte, NE

Home | Current Version | Previous Version | Text Only | Print | Product List | Glossary On
Versions: 1 2 3 4 5 6 7 8 9 10 11 12 13 14 15 16 17 18 19 20 21 22 23 24 25 26 27 28 29 30 31 32 33 34 35 36 37 38 39 40 41 42 43 44 45 46 47 48 49 50
000
AXUS43 KLBF 290610
MISLBF


WESTERN AND NORTH CENTRAL NEBRASKA HOURLY WEATHER ROUNDUP
NATIONAL WEATHER SERVICE NORTH PLATTE NE
100 AM CDT FRI AUG 29 2014

***STATIONS NOT REPORTING VARIABLES SUCH AS SKY/WEATHER OR
PRESSURE ARE PROVIDED BY THE NEBRASKA DEPARTMENT OF
ROADS...RAWS...AND APRS NETWORKS...AND ARE NOT UNDER
NATIONAL WEATHER SERVICE QUALITY CONTROL***

...OBSERVATIONS IN AND NEAR THE EASTERN PANHANDLE OF NEBRASKA...

CITY           SKY/WX    TMP DP  RH WIND       PRES   REMARKS
PINE RIDGE     PTCLDY    54  52  93 CALM      29.95F
CHADRON        CLEAR     55  53  93 W6        29.96F
ALLIANCE       PTCLDY    54  51  90 W8        29.99F
SIDNEY         PTCLDY    58  51  78 NW9       30.04F
WHITECLAY        N/A     53  50  90 SE5         N/A
RUSHVILLE        N/A     55  51  86 E6          N/A
GORDON           N/A     61  53  73 W7          N/A
CRESCENT LAKE    N/A     58  51  77 NW6         N/A
LISCO            N/A     61  55  80 W7          N/A
BIG SPRINGS      N/A     59  57  92 CALM        N/A
$$

...OBSERVATIONS IN NORTH CENTRAL NEBRASKA...

CITY           SKY/WX    TMP DP  RH WIND       PRES   REMARKS
VALENTINE      MOCLDY    63  62  97 SW6       29.89F
THEDFORD       PTCLDY    60  58  94 SW7       29.93F
AINSWORTH      CLEAR     60  59  97 W5        29.89S
O`NEILL        PTCLDY    65  65  99 W6        29.84S
ORD            PTCLDY    63  62  97 NW7       29.84F
BROKEN BOW     PTCLDY    63  61  93 CALM      29.88F
SPRINGVIEW       N/A     61  59  94 CALM        N/A
ROSE             N/A     63  63  99 SW6         N/A
NEWPORT          N/A     64  62  94 W7          N/A
SARGENT          N/A     63  62  97 CALM        N/A
COMSTOCK         N/A     68  67  98 W3          N/A
CHAMBERS         N/A     63  62  96 CALM        N/A
EWING            N/A     65  64  96 CALM        N/A
$$

...OBSERVATIONS IN SOUTHWEST NEBRASKA AND FAR NORTHEAST COLORADO...

CITY           SKY/WX    TMP DP  RH WIND       PRES   REMARKS
WRAY             N/A    N/A N/A N/A W6        29.99F
HOLYOKE        FAIR      63  55  77 NW9       29.99F
IMPERIAL       PTCLDY    60  56  86 NW5       29.96F
OGALLALA       MOCLDY    57  54  88 W3        29.96S
NORTH PLATTE   CLEAR     59  57  93 NW6       29.93S
MCCOOK         CLEAR     63  57  81 NW12      29.91F
LEXINGTON      MOCLDY    65  63  94 NW10      29.89R
PAXTON           N/A     60  57  89 CALM        N/A
SUTHERLAND       N/A     57  53  89 W6          N/A
BRADY            N/A     62  58  87 CALM        N/A
GOTHENBURG       N/A     64  57  79 NW8         N/A
CALLAWAY         N/A     62  61  96 NW3         N/A
$$

...SOME WEATHER OBSERVATIONS FROM AROUND THE REGION...

CITY           SKY/WX    TMP DP  RH WIND       PRES   REMARKS
DENVER         CLEAR     58  46  64 S12       30.12F
LARAMIE        CLEAR     45  40  82 SE8       30.22S
CHEYENNE       CLEAR     50  48  93 W6        30.14F
SCOTTSBLUFF    CLEAR     54  52  93 NE3       30.02F
RAPID CITY     CLEAR     56  55  97 CALM      29.92F
PIERRE         MOCLDY    66  65  96 N5        29.82S
WINNER         FAIR      67  65  93 W6        29.85R
SIOUX FALLS    CLOUDY    71  70  96 E3        29.81S FOG
OMAHA          CLOUDY    73  68  84 SE7       29.84F
GRAND ISLAND   FAIR      71  67  87 SW3       29.84F
KANSAS CITY    FAIR      70  64  81 S8        29.89S
WICHITA        CLOUDY    68  65  90 SE9       29.88F
HAYS           MOCLDY    66  54  63 W17G23    29.90F
LIBERAL        FAIR      64  54  68 NW6       30.00S
GOODLAND       CLEAR     59  57  93 W7        30.00S
$$



USA.gov is the U.S. government's official web portal to all federal, state and local government web resources and services.